Location: *
(48.8489°N, 2.3218°E)
Time: 09:09:24
(UTC+00:00)

Okean 2 - Pass Details

Date: 23 August 2019
Orbit: 561 x 577 km, 82.5° (Epoch: 21 October)

Event Time Altitude Azimuth Distance (km) Brightness Sun altitude
Rises 21:49:58 0° 345° (NNW) 2,776 8.1 -24.0°
Reaches altitude 10° 21:52:13 10° 339° (NNW) 1,872 7.0 -24.2°
Maximum altitude 21:56:10 46° 266° (W) 763 4.1 -24.5°
Enters shadow 21:56:20 46° 258° (WSW) 766 4.1 -24.6°
